Regional Weather Roundup
Issued by NWS

Home | Current Version | Previous Version | Text Only | Print | Product List | Glossary On
Versions: 1 2 3 4 5 6 7 8 9 10 11 12 13 14 15 16 17 18 19 20 21 22 23 24 25 26 27 28 29 30 31 32 33 34 35 36 37 38 39 40 41 42 43 44 45 46 47 48 49 50
000
ASCA42 TJSJ 221511
RWRPR
PUERTO RICO/U.S. VIRGIN ISLANDS HOURLY WEATHER ROUNDUP
NATIONAL WEATHER SERVICE SAN JUAN PR
1100 AM AST SAT NOV 22 2014

PRZ001-004-221600-
PUERTO RICO

CITY           SKY/WX    TMP DP  RH WIND       PRES   REMARKS
SAN JUAN LMM   CLOUDY    81  77  89 E14G24    30.05R
PONCE          PTSUNNY   81  73  78 E7        29.99S
AGUADILLA      PTSUNNY   79  73  83 E13G21    30.06S
CEIBA          LGT RAIN  79  73  83 E6        30.07F
$$

PRZ006-007-221600-
U.S. VIRGIN ISLANDS

CITY           SKY/WX    TMP DP  RH WIND       PRES   REMARKS
$$

HOURLY WEATHER ROUNDUP FOR THE NEWS MEDIA

CITY           SKY/WX    TMP DP  RH WIND       PRES   REMARKS
MIAMI          CLOUDY    79  68  69 E21G29    30.18R
ORLANDO        CLOUDY    70  65  84 E13       30.27R
NEW YORK       PTSUNNY   35  13  40 SW15      30.48F WCI  25
NEWARK         MOSUNNY   34  12  40 SW14      30.47F WCI  25
CHICAGO        CLOUDY    38  36  92 SW10      30.00F FOG     WCI  31
HARTFORD       SUNNY     36  15  42 W13G21    30.40F WCI  27
BOSTON         PTSUNNY   34  12  40 SW16      30.37F WCI  24
DALLAS         CLOUDY    60  57  89 SE15      30.05S
PHILADELPHIA   MOSUNNY   35  17  47 SW14      30.52F WCI  26


USA.gov is the U.S. government's official web portal to all federal, state and local government web resources and services.